sat.trackr.live / text

‹ back to catalog

STARLINK-37895

NORAD 69950 · 2026-157H

PAYLOAD ACTIVE UNKNOWN

§ Identity

Operator
Country
US
Launch date
2026-07-09
Launch site
AFETR
Launch vehicle
Mass (kg)
RCS (m²)

Purposes: comms

External: N2YO · Heavens-Above · Gunter

§ Orbital elements

Epoch: 2026-09-20T04:27:43.621056Z

Period
93.79 min
Inclination
53.1593°
Eccentricity
0.0001123
Mean motion
15.35397763 rev/d
Perigee alt
459.0 km
Apogee alt
460.5 km
Semi-major
6,837.9 km
B*
4.4116e-4
RAAN
335.2716°
Arg perigee
95.3856°
Mean anomaly
264.7275°
Rev number
1,132

§ Raw data

STARLINK-378951 69950U 26157H   26263.18592154  .00015038  00000+0  44116-3 0  99992 69950  53.1593 335.2716 0001123  95.3856 264.7275 15.35397763 11326

JSON: /api/v1/satellites/69950 · /tle

For live sub-satellite position, see the globe view (requires WebGL).

§ Visibility from observer

Set your observer location to see the next 7 days of passes ≥ 10°. The values pass through the URL so the page stays shareable.

No JS? Fill the form by hand. The geolocation button needs JavaScript.